Погода Новотроицкое

Погода Новотроицкое : погода сейчас, прогноз погоды и архив. Всё, что Вы хотите узнать о погоде Новотроицкое!

Хотите узнать прогноз погоды Новотроицкое? Тогда Вам сюда: Погода Новотроицкое

Поиск расширенной информации на нашем сайте:

Другие новости

Новости СМИ2

Главная страница сайта

Новости сайта

02.10.2013

Напоминаем, что на нашем новом сайте вы можете получить высокодетализированные прогнозы погоды по пунктам России, СНГ и мира (включающие важные для авиации метеовеличины, такие как направление и скорость ветра, видимость, явления погоды, количество и форма облачности, нижняя и верхняя граница облачности), а также ознакомиться с разнообразными материалами по авиационной метеорологии и подборкой полезных ссылок на эту тему.

Сайт Метеоцентр.Азия посвящён разработке технологий оптимизации авиаметеорологического обслуживания, включая проектирование и перспективное создание нескольких автоматизированных авиаметеорологических систем:
- система выпуска высокодетальных прогностических карт явлений погоды для нижнего воздушного пространства по России и ближнему зарубежью;
- система верификации прогнозов TAF (выпускаемых синоптиками официальных АМСГ РФ и ближнего зарубежья) и AUTOTAF (выпускаемых сайтом Метеоцентр.Азия) - выявление ошибок, онлайн-сопоставление с фактической погодой METAR, автоматическое внесение коррективов в прогнозы при резком отклонении фактической погоды от прогноза, подсчёт оправдываемости прогнозов по элементам и в целом;
- система обработки, анализа и отображения авиаметеорологической информации для применения провайдерами метеорологической информации.


Погода Новотроицкое - сегодня

Время (UTC), дата Ветер
(°,м/с) 
Видим.   Явления Облачность Т
(°С)
Тd
(°С)
f(%) Тe
(°С)
Pmin
(гПа)
dP
(гПа)
Po
(мм)
O2
(г/м3)
Тmin Tmax R s Состояние
почвы
06 20.06.17 050 (СВ) 20000 м    6/0 средняя 
[Ac cuf]
+29.7 +17 46 +44  1003.3  -0.8  715  256  +18.4       
09 20.06.17 050 (СВ) 20000 м    8/8 1000 м 
[Cu med, cong]
+32.6 +14.8 34 +42  1001.5  -1.3  714  254           
12 20.06.17 050 (СВ) 20000 м    8/8 1000 м 
[Cu med, cong]
+33.2 +12.5 28 +39  1000.4  -1  713  254           
15 20.06.17 тихо ()   10 км    6/6 1000 м 
[Cu med, cong]
+30.1 +17.6 47 +45  1001  0.2  714  255    +34.6       
18 20.06.17 140 (ЮВ) 10 км    ясно 
+24.7 +14.7 54 +34  1003.2  0.1  714  261    +34.6       
21 20.06.17 180 (Ю) 10 км    ясно 
+22.3 +13.7 58 +30  1002.7  0.1  714  263           
00 21.06.17 140 (ЮВ) 20000 м    8/0 средняя 
[Ac trans]
+24.1 +10.9 43 +28  1001.9  -0.5  713  262           
03 21.06.17 140 (ЮВ) 20000 м    8/0 средняя 
[Ac trans]
+26.4 +13.5 45 +34  1002.5  714  260           
06 21.06.17 180 (Ю) 20000 м    3/0 средняя 
[Ac trans]
+32.2 +14 33 +40  1000.3  -1.1  713  254  +22.2         
09 21.06.17 180 (Ю) 20000 м    3/3 1000 м 
[Cu med, cong]
+35.2 +12.7 26 +41  1098.7  -1.1  713  252           
12 21.06.17 140 (ЮВ) 20000 м    3/3 1000 м 
[Cu med, cong]
+35.7 +15.1 29 +46  1097.9  -0.7  712  251           
15 21.06.17 140 (ЮВ) 10 км    6/6 1000 м 
[Sc]
+28.3 +19.2 58 +47  999.5  0.5  712  256    +37.3       
18 21.06.17 050 (СВ) 10 км    6/6 1000 м 
[Sc]
+24.3 +14.8 55 +34  1001.3  0.9  713  261    +37.3       
21 21.06.17 090 (В) 10 км    ясно 
+21.9 +12.6 56 +28  1001.6  -0.1  713  263           
00 22.06.17 140 (ЮВ) 20000 м    4/4 1000 м 
[Cu hum]
+20 +14.3 70 +29  1002.5  0.6  713  265           
03 22.06.17 140 (ЮВ) 20000 м    ясно 
+26.7 +15 49 +37  1001.8  0.4  714  259           
06 22.06.17 тихо ()   20000 м    ясно 
+33.7 +14.9 32 +44  1000.3  -0.3  713  253  +19.9         
09 22.06.17 тихо ()   20000 м    3/3 1000 м 
[Cu med, cong]
+36.5 +13.8 26 +44  998.2  -1.6  712  250           
12 22.06.17 тихо ()   20000 м    5/5 1000 м 
[Cu med, cong]
+36.9 +15.9 29 +49  997.3  -0.7  712  249           
15 22.06.17 090 (В) 10 км  [макс. диам. градин 10 мм]  8/8 600 м кучево-дожд. 
[Cb cap]
+25.1 +19.7 72 +45  1000.1  0.8  712  258    +38     
18 22.06.17 140 (ЮВ) 10 км    8/8 600 м кучево-дожд. 
[Cb cap]
+27.7 +13.3 41 +35  1000.1  0.4  713  258    +38     
21 22.06.17 090 (В) 10 км    5/5 600 м кучево-дожд. 
[Cb cap]
+23.6 +13.5 53 +31  1002.1  1.2  714  262           
00 23.06.17 140 (ЮВ) 20000 м    8/8 600 м кучево-дожд. 
[Cb cap]
+22.9 +11.8 50 +28  1000.6  -1.6  712  263           
03 23.06.17 180 (Ю) 20000 м    3/3 1000 м кучево-дожд. 
[Cb cap]
+28.6 +13.7 40 +36  1000.4  0.8  713  257         
06 23.06.17 230 (ЮЗ) 20000 м    4/4 1000 м 
[Sc]
+34.5 +13.8 29 +42  999.1  -0.3  713  252  +22.8       
Время (UTC), дата Ветер
(°,м/с) 
Видим.   Явления Облачность Т
(°С)
Тd
(°С)
f(%) Тe
(°С)
Pmin
(гПа)
dP
(гПа)
Po
(мм)
O2
(г/м3)
Тmin Tmax R s Состояние
почвы

Для получения пояснительной информации подведите курсор к названию столбца.

ПОГОДА Новотроицкое - архив

Всё, что Вы хотите узнать о погоде Новотроицкое - удобно и подробно!

Выберите нужную дату (начиная с 1 января 2015* года) и нажмите кнопку "Найти".
Будут отображены архивные сводки погоды по пункту Новотроицкое, начиная с указанной даты.


Отображать данные в формате CSV (для использования в таблицах Excel)


Внимание! Наш архив погоды предназначен исключительно для личного некоммерческого использования в познавательных целях. Если Вам необходимы официальные справки о состоянии погоды (для производственных, юридических, коммерческих и т.п. целей), обращайтесь в органы Росгидромета.

*Примечание: данная дата относится к архиву по метеостанциям СССР (Россия, СНГ, Балтия).
Архив по метеостанциям Зарубежной Европы и Азии (кроме Китая) хранится 10 дней, по другим регионам земного шара (Китай, Африка, Америка, Австралия, Океания) - 1 день.

Новотроицкое - район местоположения метеостанции


Название, широта, долгота, высота метеостанции:
Новотроицкое 43.7°ш. 73.8°д. 456 м над ур. моря [Казахстан]

Дополнительная информация

В oтличие oт бoльшинства пoгoдных сайтoв мы публикуем пoдрoбную метеoинфoрмацию в детальнoм прoфессиoнальнoм фoрмате.

Характеристики температуры и влажнoсти вoздуха измеряются на высoте 2 м в тени вдали oт зданий и деревьев.
Скoрoсть ветра измеряется на высoте 10 м (на урoвне рoста челoвека скoрoсть ветра ниже в 1.5-2 раза). Если метеoстанция нахoдится в гoрoде или в лесу, тo скoрoсть ветра занижена на 2-4 м/с пo сравнению с oткрытым местoм. Скoрoсть ветра над акватoриями крупных рек и oзёр, а также на вершинах хoлмoв на 2-5 м/с выше, чем в oбычных услoвиях.
Атмoсфернoе давление в разных тoчках местнoсти мoжет значительнo oтличаться oт давления на метеoстанции, в зависимoсти oт услoвий рельефа (при пoдъёме на 10 м давление пoнижается примернo на 1 мм рт.ст.).